Vorticity
nan nan nan nan nan nan nan nan nan nan nan nan nan nan nan nan nan nan nan nan nan nan nan nan nan nan nan nan nan nan nan nan nan nan nan nan nan nan nan nan nan nan nan nan nan nan nan nan nan nan nan nan nan nan nan nan nan nan nan nan nan nan nan nan nan nan nan nan nan
nan 8 6 5 5 6 7 9 9 8 7 7 9 9 8 8 9 9 9 8 6 7 7 9 10 9 9 8 9 9 9 10 10 8 9 9 6 6 6 9 8 9 11 13 11 9 11 10 6 5 7 10 10 9 7 5 8 10 11 5 4 10 16 17 15 14 13 10 nan
nan 11 10 7 4 3 4 7 7 6 5 6 7 8 8 8 9 9 9 8 6 6 6 8 11 14 14 12 10 10 10 12 12 9 9 11 9 5 2 4 6 5 7 11 12 10 10 9 8 7 6 7 7 8 9 8 6 8 13 12 8 9 11 17 18 16 13 15 nan
nan 12 11 11 7 4 2 3 5 6 6 8 9 8 8 9 9 9 9 9 9 8 6 5 9 14 16 16 10 7 6 8 10 10 10 9 10 9 5 3 5 5 5 6 8 8 8 5 5 8 9 8 9 8 8 10 9 7 10 14 12 12 11 12 15 14 13 14 nan
nan 12 11 11 11 8 6 5 4 5 6 7 7 7 7 8 8 8 7 9 9 7 5 3 5 9 11 12 10 8 7 7 9 11 12 12 13 12 11 7 7 8 9 8 8 9 10 6 3 7 10 11 12 11 9 6 7 6 5 8 11 12 13 11 12 12 12 11 nan
nan 11 9 9 10 10 9 8 8 7 6 6 4 3 2 4 4 4 3 5 7 8 8 9 7 7 8 10 11 11 11 11 10 9 9 11 12 13 14 13 11 10 10 10 10 11 13 11 6 9 11 11 11 11 10 8 6 6 4 3 6 7 10 10 10 12 13 12 nan
nan 15 13 10 10 8 7 5 8 9 8 8 7 4 1 -1 -0 1 1 2 6 11 13 14 9 6 6 9 12 14 13 12 10 8 5 6 5 7 11 14 13 11 9 10 10 11 13 13 9 11 12 12 14 16 14 10 6 5 4 1 2 4 8 10 9 12 16 16 nan
nan 26 24 21 18 14 10 7 5 6 6 6 7 7 5 2 2 3 5 6 7 9 10 10 8 5 4 5 8 11 13 13 12 11 10 9 8 8 8 10 11 11 10 10 10 9 8 10 10 12 12 13 15 19 20 13 7 5 4 3 0 1 3 8 9 11 14 16 nan
nan 24 28 31 30 28 26 23 17 10 5 2 2 4 6 6 7 8 10 11 10 8 6 5 7 8 7 6 6 8 10 13 14 14 14 14 14 12 10 11 11 11 10 11 11 8 3 4 7 10 9 9 10 13 17 17 12 8 6 8 5 2 -2 1 6 8 10 12 nan
nan 13 18 19 21 28 32 36 35 29 22 16 12 10 9 9 9 9 10 11 9 7 5 5 8 9 11 11 10 8 8 10 12 13 12 12 13 12 10 10 10 9 9 9 12 12 7 3 6 7 5 5 6 6 9 13 14 11 5 9 11 8 1 -2 3 7 9 10 nan
nan 10 11 8 8 15 20 27 32 33 33 31 28 26 24 20 15 11 8 5 4 5 5 6 7 8 9 12 11 9 7 6 7 8 8 7 7 8 8 7 7 7 6 5 8 11 10 7 8 6 2 1 6 9 11 11 12 10 4 4 9 10 8 3 3 6 10 12 nan
nan 10 10 8 8 11 12 15 17 16 18 22 27 31 33 30 26 22 16 9 7 8 10 9 8 8 7 9 10 9 8 6 3 3 4 5 5 5 6 6 7 7 7 4 4 5 7 7 7 6 4 -2 2 9 13 13 11 10 6 3 5 6 7 6 3 3 7 13 nan
nan 9 9 8 10 13 14 14 12 8 6 9 15 20 23 23 25 28 29 25 22 18 15 13 12 11 10 8 9 8 8 8 6 4 4 6 8 8 8 8 9 10 11 11 6 2 1 5 5 5 5 0 -2 2 7 11 12 13 12 9 7 6 6 5 2 1 3 7 nan
nan 9 9 9 11 14 13 13 14 8 4 6 10 12 12 12 16 21 27 30 30 27 22 18 16 14 12 9 7 7 7 8 9 7 6 7 9 10 10 10 10 11 12 15 12 6 0 1 4 6 6 4 -0 0 3 6 9 13 14 14 12 10 9 7 4 3 4 7 nan
nan 10 10 11 13 15 12 14 14 8 5 8 11 11 12 11 11 12 15 20 28 32 30 24 18 16 15 13 10 9 8 9 9 9 10 11 12 12 10 9 10 9 9 11 13 12 8 3 4 5 6 6 4 3 3 4 6 7 9 10 10 11 12 13 10 7 6 8 nan
nan 9 10 11 12 14 14 16 15 8 6 7 9 12 13 13 11 9 9 15 25 28 29 28 26 22 20 17 14 11 10 9 9 9 10 12 12 11 11 10 10 9 8 8 10 12 11 8 7 7 7 6 6 6 6 5 6 6 5 5 6 8 10 15 15 13 10 10 nan
nan 8 10 9 9 11 14 17 15 9 6 6 9 13 14 14 12 10 10 14 16 16 20 30 36 33 28 24 21 18 16 14 13 11 9 8 9 10 13 13 13 11 10 9 9 11 11 8 6 8 9 9 8 9 9 8 8 8 8 6 5 6 6 9 14 16 16 14 nan
nan 8 8 7 7 9 11 14 13 10 8 9 12 13 12 11 10 12 11 10 9 9 14 25 33 36 36 36 35 33 30 27 25 21 17 13 13 14 15 16 15 13 11 10 10 10 10 9 7 7 9 12 12 12 12 11 11 11 11 9 7 6 4 4 7 11 15 16 nan
nan 8 8 7 7 8 9 11 12 11 11 11 11 10 8 8 11 12 11 10 9 10 13 16 19 22 24 29 33 35 35 33 32 34 34 33 30 26 22 17 14 12 12 11 10 10 10 10 9 9 9 11 13 14 14 13 12 13 13 13 11 9 7 5 5 5 8 12 nan
nan 9 9 8 7 8 9 10 11 11 12 10 7 8 9 10 11 11 11 11 11 12 13 12 10 9 9 11 15 19 22 20 20 27 34 40 42 42 38 30 22 17 14 13 11 11 10 10 10 9 9 10 13 14 15 16 15 13 11 12 15 15 13 11 9 6 4 6 nan
nan 10 11 10 9 9 9 10 10 10 11 10 9 9 10 10 10 10 10 11 12 12 12 10 9 7 7 7 8 11 14 10 6 11 16 21 28 36 45 50 45 33 22 14 13 12 10 9 8 6 5 7 10 12 13 15 17 15 9 6 10 15 16 17 15 12 8 6 nan
nan 11 11 11 10 10 10 11 11 11 11 10 10 11 11 11 10 10 11 12 12 11 11 10 8 7 7 8 9 12 14 10 6 7 8 8 9 16 29 45 56 54 47 33 22 16 13 13 13 10 5 4 7 9 11 12 15 18 15 7 5 9 12 15 16 15 13 10 nan
nan 12 14 11 7 9 11 12 11 11 12 11 10 11 11 11 11 11 12 13 12 11 13 13 8 5 5 7 8 10 13 12 10 9 9 8 6 7 14 23 35 48 56 53 42 38 37 37 36 32 26 19 16 14 13 13 15 18 18 13 8 8 9 12 13 13 13 12 nan
nan 13 16 9 4 9 12 11 11 11 11 11 10 11 12 12 11 11 11 12 12 12 16 15 9 6 6 6 7 8 9 10 10 10 9 9 9 9 12 12 12 18 26 28 27 34 42 44 41 42 43 43 38 29 22 18 16 15 15 14 11 10 10 11 12 11 12 10 nan
nan 11 12 9 7 10 10 10 10 11 11 11 10 11 11 13 13 11 10 10 12 12 13 14 14 12 9 6 6 7 8 9 9 9 9 9 10 12 14 12 7 5 2 -9 -10 5 18 24 27 31 35 43 45 41 35 27 18 13 11 11 11 10 11 13 12 11 10 10 nan
nan 10 9 9 10 9 9 10 10 10 11 11 10 11 12 14 14 11 10 11 12 12 13 15 15 13 11 8 6 8 11 10 7 7 9 8 8 11 15 14 10 5 -6 -17 -11 2 9 13 19 25 31 36 39 40 39 35 25 17 12 9 9 10 11 13 14 13 11 13 nan
nan 9 10 10 9 9 10 10 9 9 10 10 10 11 12 14 13 10 10 12 13 14 15 15 13 12 12 7 3 7 12 11 8 8 9 9 8 9 14 14 11 3 -13 -16 -3 7 10 10 13 20 31 35 36 37 36 34 30 23 17 12 11 12 13 13 15 15 13 14 nan
nan 10 9 10 10 10 10 10 9 9 10 10 10 11 11 11 11 11 12 12 15 17 17 15 14 14 11 4 1 4 8 12 12 10 9 9 10 10 13 12 6 -5 -16 -11 3 9 11 10 11 15 24 36 41 38 37 35 31 26 22 19 18 18 17 14 14 16 16 15 nan
nan 10 10 10 11 11 10 10 10 11 12 11 9 9 10 11 11 11 11 12 15 18 19 15 12 10 6 4 4 5 7 12 13 10 7 8 12 14 12 10 3 -8 -16 -8 6 10 11 11 11 12 18 35 45 38 36 35 33 27 21 19 20 19 16 12 10 12 14 16 nan
nan 10 9 9 10 11 10 9 10 12 14 11 7 9 11 11 10 10 10 12 14 16 15 11 7 5 6 9 10 8 9 11 11 9 7 7 11 14 15 12 6 -5 -16 -9 5 9 10 11 11 12 15 30 41 33 25 26 34 35 29 18 11 10 10 12 10 8 6 11 nan
nan 9 9 9 10 10 9 9 10 11 13 10 8 10 11 10 9 10 11 12 12 11 10 8 7 7 10 12 10 8 9 11 10 9 8 8 9 12 15 14 7 -2 -14 -9 5 7 9 10 11 12 15 30 38 26 13 12 25 38 43 36 20 9 4 10 15 14 10 8 nan
nan 8 9 8 9 10 9 9 10 10 9 9 11 11 10 10 10 11 11 12 10 9 9 10 9 9 10 11 10 8 8 10 10 9 9 9 9 11 14 15 8 -2 -14 -8 6 8 8 9 11 13 16 31 36 21 12 10 13 20 29 45 52 40 20 5 10 16 17 11 nan
nan 8 8 8 8 9 9 9 9 9 9 10 10 10 10 11 11 11 11 12 10 9 10 10 10 10 10 10 10 8 9 9 7 7 9 10 11 12 16 19 8 -8 -15 -5 7 9 9 9 10 13 18 32 35 21 14 14 13 8 7 20 44 58 59 35 15 12 14 12 nan
nan 8 8 8 8 8 8 8 9 8 9 10 10 9 10 10 11 12 12 11 11 11 10 10 10 10 9 10 10 9 9 7 5 6 8 10 10 11 17 21 6 -14 -15 -2 8 9 10 9 10 15 22 34 32 18 10 14 15 7 2 2 12 28 51 67 56 37 24 15 nan
nan 9 8 8 9 9 8 8 9 9 9 10 9 9 9 10 11 11 10 10 11 12 11 10 10 10 9 10 11 10 9 7 6 6 7 8 8 10 13 15 3 -13 -10 1 7 9 10 10 11 18 30 36 27 14 9 13 13 7 4 5 3 4 15 43 64 63 53 37 nan
nan 10 9 10 10 10 9 10 9 9 9 9 9 9 9 11 12 11 9 10 12 11 11 11 10 9 8 11 12 10 9 9 8 8 7 6 7 9 10 10 3 -5 -5 0 5 7 9 10 13 22 36 37 23 13 11 13 10 5 6 9 6 3 5 12 27 42 52 53 nan
nan 10 10 11 11 11 11 11 10 10 10 10 9 10 10 12 12 11 10 11 11 10 11 11 9 9 9 11 12 9 8 9 10 10 9 7 6 7 8 9 6 1 -4 -3 2 6 8 9 13 25 40 36 19 14 13 13 9 6 7 9 9 8 11 9 6 11 20 35 nan
nan 11 11 12 12 12 11 10 10 10 10 11 11 11 12 14 12 10 9 10 9 9 11 10 9 9 9 11 12 8 8 8 10 11 11 10 8 6 6 8 8 5 -4 -6 0 5 7 8 12 23 40 35 19 17 16 11 7 7 9 11 9 8 13 14 8 5 1 7 nan
nan 11 11 11 12 12 11 10 10 11 11 11 11 11 12 14 13 10 9 8 8 9 10 9 8 10 9 13 13 9 7 8 10 11 12 12 9 7 7 8 8 4 -4 -6 -1 4 6 7 9 19 39 37 22 19 16 10 6 8 10 11 10 9 12 14 12 8 1 -0 nan
nan 11 10 11 13 13 11 10 10 12 12 10 10 12 13 13 12 10 11 9 7 10 11 8 6 10 12 14 13 9 7 8 10 11 11 11 10 9 10 10 7 3 -2 -5 -2 3 5 6 7 17 39 39 22 18 14 9 6 7 10 12 12 11 11 12 12 10 6 5 nan
nan nan nan nan nan nan nan nan nan nan nan nan nan nan nan nan nan nan nan nan nan nan nan nan nan nan nan nan nan nan nan nan nan nan nan nan nan nan nan nan nan nan nan nan nan nan nan nan nan nan nan nan nan nan nan nan nan nan nan nan nan nan nan nan nan nan nan nan nan
CAPE
14 12 12 8 5 5 2 0 nan nan nan nan nan nan nan nan nan nan nan nan nan nan nan nan nan nan nan nan nan nan nan nan nan nan nan nan 7 50 50 52 72 65 65 45 45 45 39 38 30 30 26 29 36 50 50 77 117 136 136 168 191 232 232 223 171 171 130 98 60
16 18 18 16 12 12 5 2 nan nan nan nan nan nan nan nan nan nan nan nan nan nan nan nan nan nan nan nan nan nan nan nan nan 0 0 nan 13 76 76 67 86 97 97 95 69 69 41 43 42 42 34 31 36 47 47 80 134 152 152 167 180 213 213 203 159 159 140 99 85
22 20 20 18 11 11 6 1 nan nan nan nan nan nan nan nan nan nan nan nan nan nan nan nan 2 0 0 nan nan nan nan 0 2 2 2 3 3 22 22 48 63 102 102 113 111 111 74 60 48 48 43 35 37 45 45 62 97 138 138 158 155 172 172 164 149 149 132 103 90
26 20 20 16 14 14 8 2 nan nan nan nan nan nan nan nan nan nan nan nan 5 12 12 14 118 106 106 48 19 19 6 5 7 7 7 8 6 5 5 34 35 60 60 103 126 126 123 102 73 73 54 51 45 48 48 54 74 105 105 144 151 157 157 170 135 135 100 100 81
24 22 22 19 16 16 12 5 1 1 nan nan nan nan nan nan 1 7 7 33 38 37 37 95 232 270 270 168 62 62 27 20 12 18 18 18 21 23 23 37 35 33 33 75 115 115 143 143 108 108 78 60 45 48 48 55 66 83 83 124 165 190 190 197 144 144 101 88 71
22 24 24 22 22 22 18 13 7 7 2 0 nan nan nan nan 3 13 13 43 60 83 83 142 236 263 263 204 105 105 65 48 46 44 44 69 66 67 67 70 83 81 81 79 102 102 152 168 127 127 99 76 69 53 53 51 59 75 75 108 147 217 217 242 179 179 125 98 79
42 38 38 31 29 29 22 21 18 18 15 10 4 1 1 0 9 39 39 78 102 125 125 187 235 239 239 225 169 169 107 91 88 108 108 98 87 112 112 130 162 161 161 125 128 128 154 172 144 144 127 97 71 67 67 60 58 70 70 95 129 190 190 242 201 201 133 119 85
106 99 99 82 63 63 35 22 23 23 19 13 12 7 7 18 59 67 67 98 158 238 238 283 323 299 299 258 267 267 246 226 170 123 123 103 82 128 128 188 215 238 238 229 199 199 197 190 166 166 172 172 116 82 82 77 75 77 77 92 110 168 168 235 254 254 150 136 105
52 69 69 96 101 101 86 55 25 25 15 15 23 27 27 54 128 137 137 121 153 315 315 345 389 381 381 338 352 352 362 370 335 232 232 180 189 181 181 193 242 274 274 292 282 282 293 229 172 172 201 234 194 148 148 125 107 100 100 98 104 129 129 218 281 281 241 159 127
15 21 21 33 39 39 44 71 82 82 57 26 25 29 29 37 97 130 130 123 196 317 317 359 406 416 416 405 391 391 392 438 464 426 426 359 349 323 323 261 265 283 283 293 296 296 307 237 183 183 227 260 246 202 202 168 141 133 133 113 115 136 136 175 230 230 309 220 159
8 8 8 11 10 10 15 26 36 36 69 89 95 69 69 47 59 63 63 120 238 310 310 367 417 425 425 433 421 421 444 431 463 459 459 453 428 414 414 374 337 330 330 324 305 305 291 231 230 230 251 249 239 217 217 202 190 200 200 159 144 164 164 159 207 207 246 240 178
15 13 13 9 6 6 5 6 14 14 26 32 42 95 95 155 130 115 115 166 186 248 248 329 397 406 406 392 399 399 375 383 403 390 390 344 369 389 389 421 392 369 369 365 338 338 288 283 282 282 279 253 227 201 201 224 198 206 206 215 192 186 186 186 214 214 210 205 178
21 17 17 15 10 10 8 5 6 6 10 13 21 38 38 52 72 135 135 159 154 169 169 229 280 328 328 333 325 325 335 327 305 282 282 268 253 291 291 341 398 393 393 377 355 355 309 304 294 294 269 243 240 222 222 230 201 170 170 213 187 156 156 168 212 212 205 193 147
19 16 16 15 15 15 13 9 9 9 8 7 11 14 14 21 32 42 42 72 101 115 115 147 198 205 205 257 250 250 279 273 235 229 229 235 216 228 228 251 335 383 383 367 348 348 319 290 277 277 259 241 227 242 242 243 252 255 255 272 242 191 191 168 197 197 205 180 122
15 16 16 16 16 16 14 13 13 13 13 14 14 11 11 10 15 27 27 42 54 119 119 144 111 118 118 135 170 170 177 206 208 168 168 208 218 209 209 217 264 330 330 342 317 317 301 288 251 251 233 215 204 227 227 247 270 325 325 324 292 253 253 205 181 181 195 175 89
10 12 12 13 14 14 12 14 18 18 19 21 22 21 21 18 16 17 17 20 35 78 78 116 101 126 126 160 171 171 178 190 184 177 177 219 253 253 253 237 240 294 294 342 330 330 282 250 240 240 209 190 186 201 201 216 255 291 291 303 295 263 263 253 210 210 196 178 108
7 10 10 13 11 11 11 13 17 17 21 20 23 20 20 24 24 18 18 17 25 33 33 79 114 101 101 78 102 102 110 131 141 187 187 208 239 242 242 246 269 331 331 358 360 360 308 223 190 190 181 179 183 194 194 216 240 252 252 272 274 266 266 235 207 207 203 209 150
8 10 10 12 14 14 13 16 17 17 18 20 17 16 16 16 13 17 17 18 14 10 10 9 12 25 25 40 35 35 29 31 33 45 45 54 70 95 95 158 234 281 281 328 324 324 308 286 268 268 227 215 210 210 210 242 272 271 271 248 239 237 237 228 203 203 190 204 201
6 9 9 12 12 12 13 13 16 16 18 17 16 15 15 14 13 13 13 15 18 13 13 10 7 6 6 6 10 10 16 25 23 22 22 77 135 130 130 138 188 237 237 279 276 276 312 294 286 286 283 267 252 253 253 276 291 300 300 274 242 218 218 207 217 217 231 213 173
6 8 8 12 10 10 12 12 14 14 14 15 13 15 15 14 13 10 10 13 19 19 19 14 7 5 5 3 3 3 5 9 10 15 15 24 29 129 129 157 159 200 200 207 271 271 295 288 256 256 229 217 217 239 239 281 300 292 292 269 252 227 227 206 190 190 197 176 155
6 8 8 10 11 11 11 11 12 12 11 11 12 12 12 13 13 14 14 13 17 20 20 21 14 8 8 6 4 4 3 6 6 5 5 8 12 20 20 46 169 129 129 139 227 227 280 284 261 261 208 160 146 145 145 176 257 282 282 242 219 223 223 229 213 213 189 170 165
8 10 10 12 13 13 14 12 13 13 10 12 11 14 14 12 14 14 14 15 16 17 17 22 17 11 11 7 5 5 5 5 5 4 4 3 3 5 5 15 40 123 123 80 110 110 159 190 223 223 182 149 133 120 120 125 181 238 238 217 173 173 173 171 200 200 209 179 172
12 13 13 17 14 14 17 17 15 15 12 13 11 12 12 13 12 14 14 16 16 16 16 23 24 16 16 11 6 6 5 5 5 5 5 4 2 2 2 7 17 27 27 58 23 23 19 27 98 98 165 113 158 226 226 203 188 234 234 210 156 143 143 132 119 119 156 176 159
10 13 13 16 18 18 18 19 19 19 16 17 15 12 12 13 13 12 12 12 15 16 16 19 23 19 19 14 10 10 6 4 4 5 5 5 4 3 3 5 10 16 16 29 34 34 34 34 32 32 34 70 151 187 187 266 304 265 265 206 166 148 148 158 136 136 143 142 150
10 12 12 14 16 16 17 19 21 21 19 21 18 19 19 16 13 13 13 9 13 13 13 16 19 19 19 18 15 15 9 6 5 4 4 4 5 5 5 3 4 3 3 1 4 4 5 4 5 5 11 28 52 132 132 168 272 304 304 214 167 157 157 143 174 174 167 139 121
13 11 11 13 15 15 16 16 19 19 20 22 23 25 25 23 19 15 15 13 11 11 11 11 16 16 16 14 12 12 11 10 7 6 6 5 5 6 6 7 6 6 6 6 10 10 12 11 6 6 3 10 27 62 62 122 146 214 214 202 169 159 159 146 142 142 134 118 108
12 13 13 13 14 14 16 17 19 19 21 23 24 26 26 24 22 19 19 14 11 9 9 9 11 13 13 8 10 10 8 9 9 9 9 7 5 6 6 7 8 6 6 10 13 13 14 13 9 9 5 4 13 30 30 107 103 103 103 127 140 145 145 141 129 129 127 114 100
11 12 12 12 12 12 15 15 17 17 20 23 22 26 26 24 22 20 20 15 13 10 10 9 9 8 8 6 7 7 7 7 8 10 10 10 9 7 7 7 7 7 7 13 16 16 16 14 12 12 7 3 5 16 16 57 132 73 73 68 117 164 164 110 119 119 125 118 114
9 10 10 11 12 12 12 14 15 15 18 22 23 25 25 26 24 21 21 19 18 14 14 9 6 5 5 7 8 8 7 8 8 8 8 11 11 11 11 8 7 9 9 17 18 18 18 16 12 12 9 5 3 12 12 28 122 89 89 91 124 150 150 123 106 106 102 99 103
9 9 9 10 9 9 10 13 14 14 14 18 21 23 23 25 21 20 20 22 21 17 17 12 10 8 8 9 8 8 7 8 9 9 9 10 10 14 14 12 9 11 11 20 22 22 18 15 11 11 9 6 3 11 11 26 75 111 111 128 139 155 155 124 102 102 97 108 113
7 6 6 8 8 8 9 10 11 11 12 14 16 18 18 19 16 17 17 19 22 21 21 18 15 13 13 9 11 11 9 10 11 9 9 9 9 12 12 13 10 13 13 23 23 23 17 15 11 11 8 6 4 9 9 15 33 51 51 123 89 105 105 120 124 124 115 129 115
6 6 6 5 6 6 6 8 8 8 8 9 11 13 13 13 10 11 11 14 19 20 20 18 19 17 17 16 15 15 10 9 11 8 8 9 8 8 8 10 12 13 13 24 24 24 19 15 12 12 10 7 5 3 3 3 10 27 27 29 83 91 91 103 104 104 97 117 92
6 6 6 6 6 6 5 6 6 6 7 6 9 9 9 9 7 10 10 12 13 16 16 18 21 19 19 19 19 19 14 11 11 10 10 9 8 8 8 10 11 14 14 20 23 23 22 18 13 13 10 9 5 3 3 4 6 9 9 17 29 35 35 48 50 50 34 51 39
9 9 9 8 7 7 8 7 7 7 7 7 7 7 7 7 7 7 7 9 9 9 9 15 19 20 20 20 19 19 18 14 11 11 11 8 6 8 8 7 8 15 15 20 24 24 23 20 16 16 13 9 3 2 2 3 6 5 5 5 10 24 24 17 31 31 18 18 10
18 14 14 15 14 14 13 11 10 10 10 12 9 6 6 6 6 5 5 6 6 6 6 8 12 17 17 19 21 21 19 23 16 14 14 11 7 7 7 6 7 15 15 20 22 22 23 20 20 20 16 7 1 2 2 3 5 4 4 3 3 6 6 19 18 18 1 0 nan
20 19 19 21 19 19 20 18 15 15 15 17 15 9 9 5 5 5 5 6 6 5 5 4 5 10 10 14 19 19 22 21 21 19 19 15 8 7 7 5 6 13 13 18 21 21 21 21 21 21 17 7 0 1 1 2 4 4 4 4 4 2 2 5 20 20 17 nan nan
17 16 16 17 18 18 20 18 16 16 17 21 19 16 16 10 8 5 5 4 4 4 4 4 4 7 7 12 16 16 17 15 18 20 20 20 13 7 7 5 5 9 9 18 21 21 20 22 21 21 17 6 1 1 1 1 3 4 4 2 3 3 3 2 4 4 15 20 4
6 7 7 9 13 13 15 15 15 15 17 18 14 15 15 14 11 9 9 6 3 3 3 4 5 6 6 7 13 13 13 10 10 16 16 22 17 11 11 8 5 7 7 15 20 20 24 24 23 23 17 7 2 1 1 1 2 2 2 2 1 2 2 1 0 0 2 11 7
7 7 7 7 6 6 7 10 11 11 12 12 12 10 10 10 10 10 10 10 4 4 4 3 4 7 7 8 7 7 11 8 9 10 10 18 20 16 16 9 6 6 6 14 19 19 23 25 25 25 18 13 5 2 2 1 2 1 1 1 1 1 1 2 1 1 1 1 nan
8 8 8 7 5 5 6 6 6 6 7 10 8 9 9 6 8 10 10 11 8 6 6 4 3 4 4 6 6 6 8 8 7 11 11 13 17 14 14 16 11 8 8 13 18 18 25 27 26 26 23 18 7 4 4 2 1 1 1 1 1 0 0 1 3 3 2 1 nan
7 7 7 6 5 5 5 7 5 5 5 5 4 7 7 6 7 9 9 6 7 9 9 7 3 2 2 3 3 3 7 7 6 10 10 10 11 10 10 16 14 9 9 12 18 18 24 28 28 28 28 18 12 7 7 4 2 1 1 1 1 0 0 0 1 1 3 2 2